THORAD AGENA D DEB, 5150

Orbit data source: Space-Track

THORAD AGENA D DEB, 5150 is space debris in SSO originally from a launch on Wed, 08 Apr 1970 UTC launched from the Air Force Western Test Range (AFWTR). Debris objects in space refer to the collection of defunct objects orbiting the Earth. Examples of debris include non-operational satellites, rocket bodies, and fragments generated from explosions, collisions, or faulty payload assembly.

Loading next visibility...
Identifier
5150, 1970-025JT
Orbit
SSO
Country
Flag of USUS
Related business
Manufacturer
Unknown
Mission
Spacecraft
Bus & Motor
Unknown
Mass
Unknown
Launch date (UTC)
1970-04-08 (56 years ago)
Launch vehicle
Unknown
Launch site
Air Force Western Test Range (AFWTR)
Object type
Payload
Rocket body
Debris
Shape & HBR
Unknown shape, 0.1 m
Radar Cross Section
Small (<0.1 m²)

Expand to show TLE details & history
Last TLE update: 10 hours ago

TLE from 10 hours ago
0 THORAD AGENA D DEB
1  5150U 70025JT  26132.70897483  .00001242  00000-0  93019-3 0  9999
2  5150  99.4660 217.1278 0088043 190.9899 168.9340 13.94794525805275
Epoch: 2026-05-12T17:00Z
TLE epoch observation values (Epoch: 2026-05-12T17:00:55.425Z)
Latitude
0.00005°
Longitude
91.41739°
Altitude
977.755 km
Speed
7.331 km/s
True Right ascension
14h 28m 30s
True Declination
0° 00' 00"
Sunlit
Object was in full shadow at epoch
Visualization orbit readout
Latitude
Unknown
Longitude
Unknown
Altitude
Unknown
Speed
Unknown
Apparent Right ascension
Unknown
Apparent Declination
Unknown
Sunlit
N/A
Visualization observer readout
Local Sidereal Time
11:03:59
Azimuth
Unknown
Elevation
Unknown
Doppler factor
Unknown
Orbital elements
Apogee altitude
973.265 km
Perigee altitude
844.947 km
Semi-major axis
7,287.243 km
Eccentricity
0.0088
Inclination
99.466°
RAAN
217.1278°
Arg. of periapsis
190.9899°
True anomaly
169.12558°
Mean anomaly
168.934°
Eccentric anomaly
169.02999°
Mean motion
3.48898 °/min
Orbital period
103.18 mins
BSTAR
0.00093019

Documentation

Showing up to 5 results
|